| time (UTC) | temp F | wind direction | speed MPH | gust MPH | rain 1hr in | rain 24hr in | rain mn in | humidity % | barometer mb |
| 20260505034110 | 53 | 135 | 0.0 | 2.0 | 0.00 | 0.08 | 0.00 | 84 | 1007.0 |
| 20260505033107 | 53 | 129 | 1.0 | 2.0 | 0.00 | 0.08 | 0.00 | 85 | 1007.0 |
| 20260505032105 | 53 | 120 | 1.0 | 2.0 | 0.00 | 0.08 | 0.00 | 86 | 1007.0 |
| 20260505031102 | 53 | 0.0 | 0.0 | 0.00 | 0.08 | 0.00 | 86 | 1007.0 | |
| 20260505030059 | 54 | 0.0 | 2.0 | 0.00 | 0.08 | 0.00 | 84 | 1007.0 | |
| 20260505025057 | 54 | 45 | 0.0 | 2.0 | 0.00 | 0.08 | 0.00 | 82 | 1006.8 |
| 20260505024054 | 55 | 234 | 1.0 | 2.0 | 0.00 | 0.08 | 0.00 | 81 | 1006.9 |
| 20260505023052 | 55 | 217 | 2.0 | 6.0 | 0.00 | 0.08 | 0.00 | 82 | 1007.1 |
| 20260505022054 | 54 | 199 | 2.0 | 4.0 | 0.00 | 0.08 | 0.00 | 82 | 1007.1 |
| 20260505021047 | 54 | 180 | 1.0 | 4.0 | 0.00 | 0.08 | 0.00 | 83 | 1007.1 |
| 20260505020044 | 54 | 195 | 1.0 | 4.0 | 0.00 | 0.08 | 0.00 | 83 | 1006.9 |
| 20260505015041 | 55 | 196 | 2.0 | 4.0 | 0.00 | 0.08 | 0.00 | 81 | 1006.8 |
| 20260505014039 | 55 | 230 | 3.0 | 7.0 | 0.00 | 0.08 | 0.00 | 80 | 1006.8 |
| 20260505013036 | 54 | 225 | 2.0 | 4.0 | 0.00 | 0.08 | 0.00 | 83 | 1007.1 |
| 20260505012039 | 54 | 274 | 3.0 | 6.0 | 0.00 | 0.08 | 0.00 | 83 | 1007.1 |
| 20260505011031 | 54 | 176 | 5.0 | 8.0 | 0.00 | 0.08 | 0.00 | 82 | 1007.1 |
| 20260505010028 | 54 | 195 | 5.0 | 9.0 | 0.00 | 0.08 | 0.00 | 83 | 1007.2 |
| 20260505005026 | 54 | 167 | 3.0 | 7.0 | 0.00 | 0.08 | 0.00 | 84 | 1007.2 |
| 20260505004023 | 54 | 177 | 4.0 | 7.0 | 0.00 | 0.08 | 0.00 | 82 | 1007.1 |
| 20260505003025 | 55 | 171 | 4.0 | 8.0 | 0.00 | 0.08 | 0.00 | 82 | 1007.2 |
| 20260505001114 | 55 | 169 | 5.0 | 9.0 | 0.00 | 0.08 | 0.00 | 81 | 1007.2 |
| 20260505000117 | 55 | 237 | 5.0 | 9.0 | 0.00 | 0.08 | 0.00 | 80 | 1007.1 |
| 20260504235109 | 55 | 232 | 5.0 | 8.0 | 0.00 | 0.08 | 0.08 | 81 | 1007.1 |
| 20260504234107 | 55 | 214 | 4.0 | 7.0 | 0.00 | 0.08 | 0.08 | 82 | 1007.3 |
| 20260504233104 | 55 | 229 | 5.0 | 9.0 | 0.00 | 0.08 | 0.08 | 82 | 1007.2 |
| 20260504232101 | 55 | 198 | 4.0 | 7.0 | 0.00 | 0.08 | 0.08 | 83 | 1007.3 |
| 20260504231059 | 54 | 188 | 5.0 | 9.0 | 0.00 | 0.08 | 0.08 | 88 | 1007.3 |
| 20260504230056 | 54 | 183 | 4.0 | 8.0 | 0.00 | 0.08 | 0.08 | 90 | 1007.2 |
| 20260504225054 | 54 | 198 | 4.0 | 9.0 | 0.00 | 0.08 | 0.08 | 91 | 1007.2 |
| 20260504224051 | 54 | 174 | 2.0 | 7.0 | 0.00 | 0.08 | 0.08 | 92 | 1007.1 |
| 20260504223048 | 54 | 178 | 2.0 | 4.0 | 0.00 | 0.08 | 0.08 | 92 | 1007.0 |
| 20260504222046 | 54 | 177 | 2.0 | 4.0 | 0.00 | 0.08 | 0.08 | 91 | 1007.1 |
| 20260504221043 | 55 | 197 | 3.0 | 6.0 | 0.00 | 0.08 | 0.08 | 90 | 1007.1 |
| 20260504220041 | 55 | 141 | 2.0 | 4.0 | 0.00 | 0.08 | 0.08 | 89 | 1007.1 |
| 20260504215038 | 56 | 146 | 1.0 | 2.0 | 0.00 | 0.08 | 0.08 | 88 | 1007.1 |
| 20260504214036 | 56 | 119 | 2.0 | 4.0 | 0.00 | 0.08 | 0.08 | 88 | 1007.1 |
| 20260504213033 | 56 | 119 | 1.0 | 4.0 | 0.00 | 0.08 | 0.08 | 88 | 1007.0 |
| 20260504212030 | 57 | 109 | 2.0 | 4.0 | 0.02 | 0.08 | 0.08 | 86 | 1007.1 |
| 20260504211027 | 56 | 314 | 3.0 | 4.0 | 0.06 | 0.08 | 0.08 | 85 | 1006.9 |
| 20260504210025 | 56 | 290 | 2.0 | 6.0 | 0.06 | 0.08 | 0.08 | 87 | 1007.2 |
| 20260504205022 | 56 | 274 | 4.0 | 8.0 | 0.06 | 0.08 | 0.08 | 88 | 1007.2 |
| 20260504204019 | 56 | 285 | 3.0 | 6.0 | 0.07 | 0.08 | 0.08 | 89 | 1007.2 |
| 20260504203017 | 56 | 222 | 2.0 | 6.0 | 0.07 | 0.08 | 0.08 | 90 | 1007.2 |
| 20260504202114 | 56 | 242 | 3.0 | 7.0 | 0.05 | 0.06 | 0.06 | 88 | 1007.5 |
| 20260504201112 | 56 | 196 | 6.0 | 13.0 | 0.01 | 0.02 | 0.02 | 87 | 1007.7 |
| 20260504200109 | 57 | 192 | 6.0 | 15.0 | 0.01 | 0.02 | 0.02 | 84 | 1007.7 |
| 20260504195107 | 57 | 151 | 7.0 | 15.0 | 0.01 | 0.02 | 0.02 | 86 | 1007.4 |
| 20260504194104 | 59 | 198 | 4.0 | 9.0 | 0.00 | 0.01 | 0.01 | 89 | 1007.1 |
| 20260504193102 | 60 | 147 | 3.0 | 6.0 | 0.00 | 0.01 | 0.01 | 88 | 1006.8 |
| 20260504192059 | 60 | 144 | 4.0 | 9.0 | 0.00 | 0.01 | 0.01 | 87 | 1006.8 |
| 20260504191057 | 60 | 104 | 1.0 | 4.0 | 0.00 | 0.01 | 0.01 | 87 | 1006.7 |
| 20260504190054 | 61 | 79 | 2.0 | 4.0 | 0.00 | 0.01 | 0.01 | 86 | 1006.6 |
| 20260504185051 | 61 | 117 | 1.0 | 4.0 | 0.00 | 0.01 | 0.01 | 85 | 1006.6 |
| 20260504184049 | 61 | 82 | 2.0 | 6.0 | 0.00 | 0.01 | 0.01 | 85 | 1006.5 |
| 20260504183046 | 62 | 100 | 2.0 | 4.0 | 0.00 | 0.01 | 0.01 | 84 | 1006.4 |
| 20260504182043 | 62 | 125 | 1.0 | 4.0 | 0.00 | 0.01 | 0.01 | 83 | 1006.1 |
| 20260504181040 | 62 | 123 | 1.0 | 4.0 | 0.00 | 0.01 | 0.01 | 82 | 1005.9 |
| 20260504180037 | 62 | 164 | 1.0 | 4.0 | 0.00 | 0.01 | 0.01 | 82 | 1005.9 |
| 20260504175035 | 62 | 78 | 1.0 | 6.0 | 0.00 | 0.01 | 0.01 | 82 | 1005.9 |
| 20260504174032 | 62 | 39 | 3.0 | 6.0 | 0.00 | 0.01 | 0.01 | 82 | 1006.1 |
| 20260504173029 | 62 | 347 | 3.0 | 7.0 | 0.00 | 0.01 | 0.01 | 82 | 1006.1 |
| 20260504172027 | 62 | 311 | 3.0 | 6.0 | 0.00 | 0.01 | 0.01 | 82 | 1006.1 |
| 20260504171024 | 62 | 22 | 3.0 | 8.0 | 0.00 | 0.01 | 0.01 | 81 | 1006.2 |
| 20260504160106 | 63 | 45 | 1.0 | 4.0 | 0.00 | 0.01 | 0.01 | 82 | 1006.7 |
| 20260504151053 | 62 | 68 | 0.0 | 2.0 | 0.01 | 0.01 | 0.01 | 84 | 1006.7 |
| 20260504141036 | 63 | 207 | 1.0 | 4.0 | 0.00 | 0.00 | 0.00 | 81 | 1007.3 |
| 20260504081102 | 65 | 101 | 1.0 | 4.0 | 0.00 | 0.00 | 0.00 | 72 | 1008.1 |
| 20260504050112 | 57 | 215 | 2.0 | 4.0 | 0.00 | 0.00 | 0.00 | 90 | 1008.5 |
| 20260504045109 | 57 | 216 | 1.0 | 4.0 | 0.00 | 0.00 | 0.00 | 90 | 1008.5 |
| 20260504044106 | 57 | 211 | 2.0 | 4.0 | 0.00 | 0.00 | 0.00 | 90 | 1008.6 |
| 20260504043104 | 57 | 175 | 2.0 | 4.0 | 0.00 | 0.00 | 0.00 | 89 | 1008.5 |
| 20260504042101 | 58 | 234 | 1.0 | 2.0 | 0.00 | 0.00 | 0.00 | 89 | 1008.4 |
| 20260504041058 | 58 | 158 | 0.0 | 2.0 | 0.00 | 0.00 | 0.00 | 89 | 1008.5 |
| 20260504040056 | 58 | 218 | 0.0 | 2.0 | 0.00 | 0.00 | 0.00 | 89 | 1008.6 |
| 20260504035053 | 57 | 0.0 | 0.0 | 0.00 | 0.00 | 0.00 | 89 | 1008.5 |